This demonstration page uses our WeatherBlox Daily Observations layout. Learn more.

Left ArrowRight Arrow

Hourly Observations for October 28, 2021

Temp ( °F °C ) Dew Point ( °F °C ) Humidity (%) Winds ( mph kmh ) Pressure ( in mb ) Visibility ( mi km ) Precip ( " mm )
12:15 am 00:15 Clear 54 12 50 10 88 88 N 6 9 29.93 1014 10 16 N/A
12:35 am 00:35 Clear 54 12 50 10 88 88 N 6 9 29.93 1014 10 16 N/A
12:55 am 00:55 Clear 54 12 50 10 88 88 NNW 6 9 29.93 1014 10 16 N/A
1:15 am 01:15 Clear 54 12 50 10 88 88 N 3 6 29.93 1014 10 16 N/A
1:35 am 01:35 Clear 54 12 50 10 88 88 NNW 3 6 29.94 1014 10 16 N/A
1:55 am 01:55 Clear 54 12 50 10 88 88 NNW 5 7 29.94 1014 10 16 N/A
2:15 am 02:15 Clear 52 11 50 10 94 94 N N/A 29.94 1014 10 16 N/A
2:35 am 02:35 Clear 52 11 50 10 94 94 N 5 7 29.93 1014 10 16 N/A
2:55 am 02:55 Clear 52 11 50 10 94 94 N N/A 29.92 1013 10 16 N/A
3:15 am 03:15 Clear 52 11 50 10 94 94 NNE 3 6 29.91 1013 10 16 N/A
3:35 am 03:35 Clear 50 10 48 9 94 94 N N/A 29.93 1013 10 16 N/A
3:55 am 03:55 Clear 50 10 48 9 94 94 N N/A 29.93 1013 10 16 N/A
4:15 am 04:15 Clear 46 8 46 8 100 100 N N/A 29.94 1014 10 16 N/A
4:35 am 04:35 Clear 48 9 48 9 100 100 N N/A 29.94 1014 10 16 N/A
4:55 am 04:55 Clear 48 9 48 9 100 100 N N/A 29.93 1013 10 16 N/A
5:15 am 05:15 Clear 46 8 46 8 100 100 N N/A 29.95 1014 10 16 N/A
5:35 am 05:35 Clear 46 8 46 8 100 100 N N/A 29.95 1014 10 16 N/A
5:55 am 05:55 Clear 46 8 46 8 100 100 N N/A 29.96 1015 10 16 N/A
6:15 am 06:15 Clear 46 8 46 8 100 100 N N/A 29.96 1015 10 16 N/A
6:35 am 06:35 Clear 45 7 45 7 100 100 N N/A 29.96 1015 10 16 N/A
6:55 am 06:55 Clear 46 8 46 8 100 100 N N/A 29.96 1015 10 16 N/A
7:15 am 07:15 Clear 45 7 45 7 100 100 N N/A 29.97 1015 10 16 N/A
7:35 am 07:35 Sunny 45 7 45 7 100 100 N N/A 29.98 1015 10 16 N/A
7:55 am 07:55 Sunny 46 8 46 8 100 100 N N/A 29.98 1015 10 16 N/A
8:15 am 08:15 Sunny 46 8 46 8 100 100 N N/A 29.98 1015 10 16 N/A
8:35 am 08:35 Sunny 48 9 46 8 94 94 N N/A 29.99 1015 10 16 N/A
8:55 am 08:55 Sunny 50 10 50 10 100 100 N N/A 29.98 1015 10 16 N/A
9:15 am 09:15 Sunny 52 11 50 10 94 94 N N/A 29.98 1015 10 16 N/A
9:35 am 09:35 Sunny 54 12 50 10 88 88 N N/A 29.98 1015 10 16 N/A
9:55 am 09:55 Sunny 55 13 48 9 77 77 N N/A 29.97 1015 10 16 N/A
10:15 am 10:15 Partly Cloudy 55 13 50 10 82 82 N N/A 29.97 1015 10 16 N/A
10:35 am 10:35 Sunny 57 14 50 10 77 77 E 5 7 29.96 1015 10 16 N/A
10:55 am 10:55 Mostly Cloudy 57 14 50 10 77 77 N N/A 29.96 1015 10 16 N/A
11:15 am 11:15 Partly Cloudy 59 15 50 10 72 72 ESE 6 9 29.94 1014 10 16 N/A
11:35 am 11:35 Sunny 59 15 52 11 77 77 E 6 9 29.94 1014 10 16 N/A
11:55 am 11:55 Sunny 61 16 52 11 72 72 N N/A 29.93 1013 10 16 N/A
12:15 pm 12:15 Partly Cloudy 61 16 52 11 72 72 SSE 7 11 29.92 1013 10 16 N/A
12:35 pm 12:35 Mostly Cloudy 63 17 52 11 68 68 ESE 5 7 29.91 1013 10 16 N/A
12:55 pm 12:55 Mostly Cloudy 63 17 54 12 73 73 S 7 11 29.90 1012 10 16 N/A
1:15 pm 13:15 Mostly Cloudy 63 17 54 12 73 73 S 9 15 29.91 1013 10 16 N/A
1:35 pm 13:35 Mostly Cloudy 64 18 54 12 68 68 SSE 8 13 29.89 1012 10 16 N/A
1:55 pm 13:55 Mostly Cloudy 64 18 54 12 68 68 SSE 8 13 29.88 1012 10 16 N/A
2:15 pm 14:15 Mostly Cloudy 64 18 54 12 68 68 S 9 15 29.87 1012 10 16 N/A
2:35 pm 14:35 Partly Cloudy 64 18 54 12 68 68 S 5 7 29.87 1012 10 16 N/A
2:55 pm 14:55 Partly Cloudy 64 18 54 12 68 68 SSE 10 17 29.85 1011 10 16 N/A
3:15 pm 15:15 Partly Cloudy 64 18 54 12 68 68 S 7 11 29.86 1011 10 16 N/A
3:35 pm 15:35 Mostly Cloudy 68 20 54 12 60 60 SSE 7 11 29.85 1011 10 16 N/A
3:55 pm 15:55 Mostly Cloudy 64 18 54 12 68 68 SSE 9 15 29.85 1011 10 16 N/A
4:15 pm 16:15 Mostly Cloudy 64 18 54 12 68 68 SSE 10 17 29.85 1011 10 16 N/A
4:35 pm 16:35 Mostly Cloudy 64 18 54 12 68 68 S 8 13 29.85 1011 10 16 N/A
4:55 pm 16:55 Cloudy 64 18 54 12 68 68 SSE 10 17 29.85 1011 10 16 N/A
5:15 pm 17:15 Cloudy 64 18 54 12 68 68 SSE 9 15 29.85 1011 10 16 N/A
5:35 pm 17:35 Cloudy 64 18 54 12 68 68 SSE 8 13 29.84 1011 10 16 N/A
5:55 pm 17:55 Cloudy 64 18 54 12 68 68 SSE 9 15 29.84 1011 10 16 N/A
6:15 pm 18:15 Cloudy 63 17 54 12 73 73 SSE 10 17 29.85 1011 10 16 N/A
6:35 pm 18:35 Cloudy 63 17 52 11 68 68 SSE 10 17 29.85 1011 10 16 N/A
6:55 pm 18:55 Cloudy 63 17 54 12 73 73 S 7 11 29.86 1011 10 16 N/A
7:15 pm 19:15 Cloudy 63 17 54 12 73 73 SSE 8 13 29.86 1011 10 16 N/A
7:35 pm 19:35 Cloudy 63 17 54 12 73 73 SSE 7 11 29.86 1011 10 16 N/A
7:55 pm 19:55 Cloudy 63 17 54 12 73 73 SSE 9 15 29.87 1011 10 16 N/A
8:15 pm 20:15 Cloudy 63 17 54 12 73 73 SSE 10 17 29.88 1012 10 16 N/A
8:35 pm 20:35 Cloudy 61 16 54 12 77 77 SSE 8 13 29.88 1012 10 16 N/A
8:55 pm 20:55 Cloudy 61 16 54 12 77 77 SSE 8 13 29.88 1012 10 16 N/A
9:15 pm 21:15 Cloudy 61 16 54 12 77 77 SSE 12 19 29.87 1011 10 16 N/A
9:35 pm 21:35 Cloudy 61 16 54 12 77 77 SE 9 15 29.87 1011 10 16 N/A
9:55 pm 21:55 Cloudy 61 16 54 12 77 77 SSE 12 19 29.86 1011 10 16 N/A
10:15 pm 22:15 Cloudy 61 16 54 12 77 77 SSE 10 17 29.86 1011 10 16 N/A
10:35 pm 22:35 Cloudy 61 16 55 13 83 83 SSE 10 17 29.86 1011 10 16 N/A
10:55 pm 22:55 Cloudy 61 16 54 12 77 77 SE 10 17 29.86 1011 10 16 N/A
11:15 pm 23:15 Cloudy 61 16 54 12 77 77 SE 12 19 29.85 1011 10 16 N/A
11:35 pm 23:35 Cloudy 59 15 54 12 82 82 SE 9 15 29.85 1011 10 16 N/A
11:55 pm 23:55 Cloudy 59 15 54 12 82 82 SE 7 11 29.85 1011 10 16 N/A

Powered by AerisWeather